Weather History for KCPC - March, 2014

Change the Weather History Date:

Sunday, March 16, 2014

  Actual Average (KLBT) Record (KLBT)
Temperature  
Mean Temperature 53 °F 54 °F  
Max Temperature 57 °F 66 °F 84 °F (2002)
Min Temperature 49 °F 42 °F 28 °F (1999)
Degree Days  
Heating Degree Days 12 11  
Month to date heating degree days 210  
Since 1 July heating degree days 2440  
Cooling Degree Days 0 0  
Month to date cooling degree days 0  
Year to date cooling degree days 3  
Growing Degree Days 3 (Base 50)    
Moisture  
Dew Point 48 °F    
Average Humidity 84    
Maximum Humidity 97    
Minimum Humidity 68    
Precipitation  
Precipitation 0.28 in 0.10 in 0.53 in (2005)
Month to date precipitation 1.73  
Year to date precipitation 7.60  
Sea Level Pressure  
Sea Level Pressure 29.93 in    
Wind  
Wind Speed 3 mph (ENE)    
Max Wind Speed 10 mph    
Max Gust Speed 18 mph    
Visibility 9 miles    
Events Rain    
T = Trace of Precipitation, MM = Missing Value Source: NWS Daily Summary

Daily Weather History Graph

Daily Weather History Graph

Search for Another Location

Airport or City:

Trip Planner

Search our weather history database for the weather conditions in past years. The results will help you decide how hot, cold, wet, or windy it might be!

Date:

Astronomy

Mar. 16, 2014 Rise Set
Actual Time 7:24 AM EDT 7:23 PM EDT
Civil Twilight 6:59 AM EDT 7:48 PM EDT
Nautical Twilight 6:29 AM EDT 8:17 PM EDT
Astronomical Twilight 6:00 AM EDT 8:46 PM EDT
Moon 7:37 PM EDT (3/16) 7:07 AM EDT (3/16)
Length of Visible Light 12h 49m
Length of Day
11h 59m
Full, 100% of the Moon is Illuminated
Mar 16
Full
Mar 16
Full
Mar 23
Last Quarter
Mar 30
New
Apr 7
First Quarter

Hourly Weather History & Observations

Time (EDT) Temp. Dew Point Humidity Pressure Visibility Wind Dir Wind Speed Gust Speed Precip Events Conditions
12:15 AM 50.9 °F 42.4 °F 73% 30.05 in 10.0 mi SSW 3.5 mph - N/A   Clear
12:35 AM 50.4 °F 42.8 °F 75% 30.04 in 10.0 mi Calm Calm - N/A   Clear
12:55 AM 50.2 °F 42.4 °F 75% 30.04 in 10.0 mi Calm Calm - N/A   Clear
1:15 AM 50.5 °F 42.3 °F 73% 30.05 in 10.0 mi SSW 3.5 mph - N/A   Clear
1:35 AM 51.1 °F 41.9 °F 71% 30.04 in 10.0 mi SSW 3.5 mph - N/A   Clear
1:55 AM 50.7 °F 41.9 °F 72% 30.04 in 10.0 mi Calm Calm - N/A   Clear
2:15 AM 50.2 °F 42.1 °F 74% 30.04 in 10.0 mi SSW 4.6 mph - N/A   Clear
2:35 AM 51.8 °F 41.9 °F 69% 30.04 in 10.0 mi SSW 3.5 mph - N/A   Clear
2:55 AM 52.0 °F 41.5 °F 68% 30.05 in 10.0 mi Calm Calm - N/A   Clear
3:15 AM 50.9 °F 42.1 °F 72% 30.04 in 10.0 mi SSW 3.5 mph - N/A   Clear
3:35 AM 51.6 °F 42.8 °F 72% 30.03 in 10.0 mi Calm Calm - N/A   Clear
3:55 AM 50.4 °F 44.1 °F 79% 30.02 in 10.0 mi Calm Calm - N/A   Scattered Clouds
4:15 AM 50.2 °F 43.2 °F 77% 30.01 in 10.0 mi Calm Calm - N/A   Mostly Cloudy
4:35 AM 50.4 °F 43.9 °F 78% 30.01 in 10.0 mi Calm Calm - N/A   Mostly Cloudy
4:55 AM 49.5 °F 43.3 °F 79% 30.00 in 10.0 mi Calm Calm - N/A   Mostly Cloudy
5:15 AM 49.3 °F 43.7 °F 81% 30.00 in 10.0 mi Calm Calm - N/A   Mostly Cloudy
5:35 AM 52.0 °F 42.8 °F 71% 30.00 in 10.0 mi Calm Calm - N/A   Mostly Cloudy
5:55 AM 50.9 °F 44.6 °F 79% 30.00 in 10.0 mi Calm Calm - N/A   Overcast
6:15 AM 50.2 °F 44.1 °F 79% 30.00 in 10.0 mi Calm Calm - N/A   Mostly Cloudy
6:35 AM 49.6 °F 43.9 °F 81% 29.99 in 10.0 mi Calm Calm - N/A   Scattered Clouds
6:55 AM 50.0 °F 44.8 °F 82% 29.99 in 10.0 mi Calm Calm - N/A   Scattered Clouds
7:15 AM 50.2 °F 44.6 °F 81% 29.99 in 10.0 mi Calm Calm - N/A   Mostly Cloudy
7:35 AM 50.0 °F 43.9 °F 79% 29.99 in 10.0 mi Calm Calm - N/A   Scattered Clouds
7:55 AM 49.3 °F 44.8 °F 84% 29.99 in 10.0 mi Calm Calm - N/A   Clear
8:15 AM 49.8 °F 45.3 °F 84% 30.00 in 10.0 mi North 3.5 mph - N/A   Mostly Cloudy
8:35 AM 51.1 °F 45.9 °F 82% 30.00 in 10.0 mi Calm Calm - N/A   Overcast
8:55 AM 53.2 °F 47.5 °F 81% 30.00 in 10.0 mi NE 3.5 mph - N/A Rain Light Rain
9:15 AM 53.8 °F 46.0 °F 75% 30.00 in 10.0 mi Calm Calm - N/A   Light Drizzle
9:35 AM 54.1 °F 46.4 °F 75% 29.98 in 10.0 mi ENE 4.6 mph - N/A   Overcast
9:55 AM 54.3 °F 46.4 °F 75% 29.98 in 10.0 mi ENE 5.8 mph - N/A   Light Drizzle
10:15 AM 54.5 °F 45.9 °F 73% 29.98 in 10.0 mi NE 4.6 mph - N/A   Overcast
10:35 AM 54.5 °F 46.4 °F 74% 29.98 in 10.0 mi ENE 3.5 mph - N/A Rain Light Rain
10:55 AM 54.7 °F 47.1 °F 76% 29.98 in 10.0 mi Calm Calm - N/A   Overcast
11:15 AM 54.9 °F 46.9 °F 75% 29.99 in 10.0 mi Calm Calm - N/A   Drizzle
11:35 AM 55.6 °F 49.1 °F 79% 29.98 in 10.0 mi North 3.5 mph - N/A Rain Light Rain
11:55 AM 56.8 °F 48.0 °F 72% 29.98 in 10.0 mi NE 3.5 mph - N/A   Light Drizzle
12:15 PM 56.3 °F 48.7 °F 76% 29.97 in 10.0 mi NNE 3.5 mph - N/A Rain Light Rain
12:35 PM 57.2 °F 48.7 °F 73% 29.96 in 10.0 mi NNE 5.8 mph - N/A Rain Light Rain
12:55 PM 56.8 °F 49.6 °F 77% 29.96 in 7.0 mi NNE 4.6 mph - 0.01 in Rain Light Rain
1:15 PM 55.4 °F 50.9 °F 85% 29.98 in 5.0 mi North 3.5 mph - 0.02 in Rain Rain
1:35 PM 55.0 °F 52.0 °F 89% 30.00 in 5.0 mi West 3.5 mph - 0.04 in Rain Rain
1:55 PM 54.9 °F 52.3 °F 91% 30.00 in 2.5 mi Calm Calm - 0.08 in Rain Rain
2:15 PM 55.2 °F 53.2 °F 93% 29.98 in 4.0 mi ESE 5.8 mph - 0.04 in Rain Rain
2:35 PM 55.6 °F 52.7 °F 90% 29.94 in 7.0 mi ENE 6.9 mph - 0.05 in Rain Light Rain
2:55 PM 55.6 °F 53.1 °F 91% 29.92 in 5.0 mi NE 4.6 mph - 0.05 in Rain Light Rain
3:15 PM 56.1 °F 52.0 °F 86% 29.91 in 7.0 mi ENE 6.9 mph - N/A Rain Light Rain
3:35 PM 55.4 °F 51.8 °F 88% 29.90 in 7.0 mi East 8.1 mph - 0.01 in Rain Light Rain
3:55 PM 54.9 °F 52.0 °F 90% 29.90 in 5.0 mi East 6.9 mph - 0.02 in Rain Light Rain
4:15 PM 54.7 °F 52.5 °F 92% 29.90 in 4.0 mi NE 5.8 mph - 0.01 in Rain Rain
4:35 PM 53.8 °F 50.9 °F 90% 29.89 in 5.0 mi East 8.1 mph - 0.03 in Rain Light Rain
4:55 PM 53.8 °F 51.8 °F 93% 29.88 in 5.0 mi East 6.9 mph - 0.03 in   Drizzle
5:15 PM 53.6 °F 51.4 °F 92% 29.85 in 7.0 mi East 9.2 mph 16.1 mph 0.01 in Rain Light Rain
5:35 PM 53.6 °F 51.4 °F 92% 29.84 in 10.0 mi East 9.2 mph 18.4 mph 0.01 in   Overcast
5:55 PM 53.6 °F 51.3 °F 92% 29.85 in 10.0 mi ESE 6.9 mph - 0.01 in Rain Light Rain
6:15 PM 53.6 °F 51.1 °F 91% 29.84 in 10.0 mi East 10.4 mph - N/A   Drizzle
6:35 PM 52.7 °F 50.5 °F 92% 29.81 in 10.0 mi East 9.2 mph - N/A   Light Drizzle
6:55 PM 52.3 °F 50.5 °F 94% 29.80 in 10.0 mi East 10.4 mph - N/A   Mostly Cloudy
7:15 PM 52.3 °F 50.7 °F 94% 29.77 in 10.0 mi East 9.2 mph - N/A   Overcast
7:35 PM 52.7 °F 50.9 °F 94% 29.80 in 10.0 mi Calm Calm - N/A Rain Light Rain
7:55 PM 52.7 °F 51.1 °F 94% 29.82 in 10.0 mi Calm Calm - N/A   Overcast
8:15 PM 52.7 °F 51.1 °F 94% 29.80 in 10.0 mi NE 5.8 mph 10.4 mph N/A   Light Drizzle
8:35 PM 52.7 °F 51.3 °F 95% 29.79 in 10.0 mi ENE 9.2 mph - N/A   Overcast
8:55 PM 52.9 °F 51.4 °F 95% 29.78 in 10.0 mi ENE 6.9 mph - N/A   Overcast
9:15 PM 53.6 °F 51.8 °F 94% 29.78 in 10.0 mi ENE 8.1 mph - N/A   Overcast
9:35 PM 53.6 °F 51.8 °F 94% 29.79 in 10.0 mi ENE 8.1 mph - N/A   Overcast
9:55 PM 53.6 °F 52.0 °F 94% 29.78 in 10.0 mi East 8.1 mph - N/A   Overcast
10:15 PM 53.8 °F 52.3 °F 95% 29.77 in 10.0 mi East 6.9 mph - N/A   Overcast
10:35 PM 53.8 °F 52.7 °F 96% 29.79 in 7.0 mi Calm Calm - N/A Rain Rain
10:55 PM 53.8 °F 52.7 °F 96% 29.77 in 4.0 mi East 5.8 mph - 0.03 in Rain Rain
11:15 PM 53.8 °F 52.7 °F 96% 29.77 in 5.0 mi NNE 3.5 mph - 0.02 in Rain Light Rain
11:35 PM 53.8 °F 52.9 °F 97% 29.78 in 4.0 mi Calm Calm - 0.03 in Rain Rain
11:55 PM 53.8 °F 52.9 °F 97% 29.77 in 5.0 mi North 3.5 mph - 0.05 in Rain Rain